Satellite-Ground Cal/Val Site Overpasses Predictions

Prediction of Satellite NPP Overpassing Cal/Val Site: Antarctic Dome C

Ground Cal/Val Site Location: Latitude: -75.10, Longitude: 123.35; Satellite-Ground Site NADIR distance within 100 km.

Table of predicted overpasses for the next 14.0 days since TLE Epoch: 8/5/2015
Interval Starting Time Ending Time Minimum Distance Time Minimum Distance (km)
1 08/05/2015 14:40:12 08/05/2015 14:40:26 08/05/2015 14:40:19 88.40
2 08/06/2015 07:41:44 08/06/2015 07:42:11 08/06/2015 07:41:57 39.50
3 08/07/2015 07:22:57 08/07/2015 07:23:17 08/07/2015 07:23:07 70.57
4 08/09/2015 15:05:09 08/09/2015 15:05:33 08/09/2015 15:05:21 55.62
5 08/10/2015 14:46:18 08/10/2015 14:46:43 08/10/2015 14:46:31 53.57
6 08/11/2015 07:47:59 08/11/2015 07:48:19 08/11/2015 07:48:09 74.58
7 08/12/2015 07:29:04 08/12/2015 07:29:32 08/12/2015 07:29:18 33.34
8 08/14/2015 15:11:28 08/14/2015 15:11:38 08/14/2015 15:11:33 93.27
9 08/15/2015 14:52:28 08/15/2015 14:52:57 08/15/2015 14:52:42 18.12
